Location: Antioch Baptist Church
(32.6696°N, 85.7327°W)
Time: 21:10:03
(UTC+00:00)

Cosmos 1844 Rocket - Pass Details

Date: 14 July 2020
Orbit: 826 x 843 km, 71.0° (Epoch: 13 August)

Event Time Altitude Azimuth Distance (km) Brightness Sun altitude
Rises 01:39:03 0° 337° (NNW) 3,366 6.9 -9.4°
Reaches altitude 10° 01:41:29 10° 336° (NNW) 2,430 6.1 -9.8°
Maximum altitude 01:47:02 76° 252° (WSW) 854 2.8 -10.8°
Drops below altitude 10° 01:52:34 10° 167° (SSE) 2,423 4.6 -11.7°
Enters shadow 01:53:17 - 167° (SSE) 2,691 4.9 -11.8°
